Location: Breungeshain
(50.5000°N, 9.2000°E)
Time: 13:59:05
(UTC+00:00)

ISS - Pass Details

Date: 20 May 2018
Orbit: 402 x 407 km, 51.6° (Epoch: 23 May)

Event Time Altitude Azimuth Distance (km) Brightness Sun altitude
Rises 22:42:59 0° 258° (WSW) 2,317 0.0 -18.9°
Reaches altitude 10° 22:45:04 10° 259° (W) 1,458 -1.0 -19.0°
Maximum altitude 22:48:20 84° 348° (NNW) 410 -3.9 -19.0°
Drops below altitude 10° 22:51:37 10° 77° (ENE) 1,460 -1.0 -19.1°
Sets 22:53:42 0° 78° (ENE) 2,320 0.1 -19.1°
